Location: Unspecified
(0.0000°N, 0.0000°E)
Time: 15:56:49
(UTC+02:00)

JASON 3 - Pass Details

Date: 28 September 2021
Orbit: 1332 x 1343 km, 66.0° (Epoch: 27 October)

Event Time Altitude Azimuth Distance (km) Brightness Sun altitude
Rises 20:15:49 0° 350° (N) 4,344 ? -6.3°
Reaches altitude 10° 20:18:45 10° 355° (N) 3,373 ? -7.1°
Maximum altitude 20:26:39 52° 70° (ENE) 1,612 ? -9.0°
Drops below altitude 10° 20:34:31 10° 144° (SE) 3,374 ? -11.0°
Sets 20:37:26 0° 149° (SSE) 4,347 ? -11.7°
